This is the latest recevied weather packets stored in our database for station/object N7YET. If no packets are shown the sender has not sent any weather packets the latest 1 day(s).
| Time | Temp. | Humidity | Pressure | Rain* | Wind** | Luminosity | Snow |
|---|---|---|---|---|---|---|---|
| 1777979656 | 0.56° C | 55% | 1231.9 hPa | 0 mm | 1.79 m/s, 89° | - | - |
| 1777979055 | 0.56° C | 55% | 1231.9 hPa | 0 mm | 2.24 m/s, 119° | - | - |
| 1777978455 | 0.56° C | 55% | 1231.9 hPa | 0 mm | 1.79 m/s, 104° | - | - |
| 1777977854 | 0.56° C | 56% | 1231.9 hPa | 0 mm | 2.24 m/s, 106° | - | - |
| 1777977254 | 0.56° C | 55% | 1231.9 hPa | 0 mm | 2.24 m/s, 85° | - | - |
| 1777976653 | 0.56° C | 55% | 1231.9 hPa | 0 mm | 1.79 m/s, 82° | - | - |
| 1777976059 | 1.11° C | 55% | 1231.9 hPa | 0 mm | 1.79 m/s, 79° | - | - |
| 1777975452 | 1.11° C | 54% | 1231.9 hPa | 0 mm | 1.79 m/s, 87° | - | - |
| 1777974851 | 1.67° C | 53% | 1231.9 hPa | 0 mm | 0.89 m/s, 90° | - | - |
| 1777974251 | 1.67° C | 53% | 1231.9 hPa | 0 mm | 0.89 m/s, 110° | - | - |
| 1777973650 | 1.67° C | 53% | 1231.9 hPa | 0 mm | 1.34 m/s, 73° | - | - |
| 1777973049 | 1.67° C | 53% | 1231.9 hPa | 0 mm | 1.79 m/s, 16° | - | - |
| 1777972449 | 2.22° C | 53% | 1231.9 hPa | 0 mm | 2.68 m/s, 352° | - | - |
| 1777971848 | 1.67° C | 53% | 1231.9 hPa | 0 mm | 2.24 m/s, 31° | - | - |
| 1777971248 | 1.67° C | 53% | 1231.9 hPa | 0 mm | 2.24 m/s, 47° | - | - |
| 1777970647 | 1.67° C | 53% | 1231.9 hPa | 0 mm | 1.79 m/s, 59° | - | - |
| 1777970046 | 1.67° C | 53% | 1231.9 hPa | 0 mm | 1.34 m/s, 69° | - | - |
| 1777969446 | 2.22° C | 53% | 1231.9 hPa | 0 mm | 1.79 m/s, 61° | - | - |
| 1777968845 | 2.22° C | 54% | 1231.9 hPa | 0 mm | 2.24 m/s, 72° | - | - |
| 1777968244 | 2.22° C | 53% | 1231.9 hPa | 0 mm | 1.79 m/s, 85° | - | - |
* Rain latest hour (hover to see other rain measurements)
** Current wind speed in m/s (hover to see current wind gust speed)